Home   Weather   Lakewood   Past weeks

Flag for USA Past Weather in Lakewood, Colorado, USA — Yesterday and Last 2 Weeks

Now
38 °F

Partly sunny.


Feels Like: 32 °F
Forecast: 20 / 47 °F
Wind: 8 mph from North

Location: Centennial Airport

Current Time: Dec 3, 2016 at 5:13:37 pm

Latest Report: Dec 3, 2016 at 3:53 pm


Visibility: 10 mi

Pressure: 30.07 "Hg (24.42 "Hg at 1683m altitude)

Humidity: 30%

Dew Point: 9 °F

Location of LakewoodLocation

Past Weather in Lakewood — Graph

°F

Lakewood Temperature Yesterday

Maximum temperature yesterday: 30 °F (at 11:53 am)
Minimum temperature yesterday: 16 °F (at 5:53 am)
Average temperature yesterday: 25 °F

High & Low Weather Summary for the Past Weeks

 TemperatureHumidityPressure
High66 °F (Nov 20, 12:53 pm)100% (Nov 22, 7:53 am)30.58 "Hg (Nov 22, 7:53 am)
Low15 °F (Nov 30, 6:53 am)6% (Nov 25, 1:53 pm)29.24 "Hg (Nov 27, 12:53 pm)
Average36 °F47%29.99 "Hg
* Reported Nov 18 3:53 pm — Dec 3 3:53 pm, Lakewood, Weather by CustomWeather, © 2016

Note: Actual official high and low records may vary slightly from our data, if they occured in-between our weather recording intervals... More about our weather records

Advertising

Lakewood Weather History for the Previous 24 Hours

Scroll right to see more
 ConditionsComfort  
Time TempWeatherWind HumidityBarometerVisibility
3:53 pm
Sat, Dec 3
38 °FPartly sunny.8 mph30%30.07 "Hg10 mi
2:53 pm41 °FPartly sunny.10 mph24%30.03 "Hg10 mi
1:53 pm40 °FScattered clouds.3 mph27%30.00 "Hg10 mi
12:53 pm39 °FPartly sunny.3 mph29%30.03 "Hg10 mi
11:53 am39 °FPartly sunny.3 mph29%30.03 "Hg10 mi
10:53 am37 °FPassing clouds.No wind36%30.06 "Hg10 mi
9:53 am32 °FPassing clouds.No wind50%30.09 "Hg10 mi
8:53 am27 °FPassing clouds.3 mph69%30.11 "Hg10 mi
7:53 am21 °FPassing clouds.6 mph81%30.14 "Hg10 mi
6:53 am15 °FPassing clouds.No wind80%30.17 "Hg10 mi
5:53 am18 °FPassing clouds.5 mph77%30.15 "Hg10 mi
4:53 am16 °FPassing clouds.7 mph80%30.15 "Hg10 mi
3:53 am16 °FPassing clouds.5 mph80%30.19 "Hg10 mi
2:53 am18 °FPassing clouds.6 mph77%30.19 "Hg10 mi
12:53 am21 °FPassing clouds.8 mph78%30.22 "Hg10 mi
11:53 pm
Fri, Dec 2
23 °FPassing clouds.12 mph74%30.22 "Hg10 mi
10:53 pm23 °FPassing clouds.14 mph78%30.24 "Hg10 mi
9:53 pm23 °FPassing clouds.9 mph78%30.27 "Hg10 mi
8:53 pm22 °FPassing clouds.3 mph82%30.29 "Hg10 mi
7:53 pm23 °FPassing clouds.5 mph81%30.29 "Hg10 mi
6:53 pm23 °FPassing clouds.6 mph81%30.30 "Hg10 mi
5:53 pm27 °FPassing clouds.No wind81%30.31 "Hg10 mi
Weather by CustomWeather, © 2016

See weather overviewHow to use our weather pages